User: anonymous
Location: Unspecified
(0.0000°N, 0.0000°E)
Time: 14:27:17
(UTC+02:00)
Language:

Iridium 75 - Orbit

View from above orbital plane
View from above orbital plane
View from above satellite
View from above satellite

Ground track
Ground track

The orbit data is extracted from the following two-line orbital elements,

1 25346U 98032E   14274.48628309  .00000261  00000-0  86126-4 0    65
2 25346 086.3920 277.7618 0002301 104.7573 006.1140 14.34220157857811
Epoch (UTC): 01 October 2014 11:40:14
Eccentricity: 0.0002301
inclination: 86.3920°
perigee height: 776 km
apogee height: 779 km
right ascension of ascending node: 277.7618°
argument of perigee: 104.7573°
revolutions per day: 14.34220157
mean anomaly at epoch: 6.1140°
orbit number at epoch: 85781

The dashed part of the orbit path shows where the satellite is in the earth's shadow,  

DLR